x

Mt Desert Rock, Me (mdrm1) Weather Station

2:00 - Tue 27th Sep 2016 All times are EDT. -4 hours from GMT.

  • Wind
    13mph, 14mph gusts
  • Aire Temp 57°f
  • Sea Pressure 1015.6mb
  • Mt Desert Rock, Me
  • Mt Desert Rock, Me

More Historic Weather Station data

Upgrade to MSW Pro to gain access to the past 30 days of data for over 8000 Wavebouys and Weather Stations around the globe.

Join Pro

Comparision Forecast

View Surf forecast
   
mar 09/27 2:00 13 14 mph 1015.6mb 57f
1:00 13 15 mph 1016.3mb 56f
12:00 11 14 mph 1017mb 56f
lun 09/26 11:00 10 11 mph 1017.4mb 55f
10:00 13 15 mph 1018mb 55f
9:00 13 15 mph 1018.2mb 55f
8:00 15
mph
1018.6mb 54f
7:00 13 15 mph 1018.8mb 54f
6:00 14 15 mph 1019mb 54f
5:00 14 15 mph 1018.9mb 55f
4:00 9 10 mph 1019.3mb 54f
3:00 7
mph
1019.8mb 54f
2:00 8
mph
1020.2mb 53f
1:00 6 7 mph 1020.9mb 53f
12:00 5 6 mph 1021.6mb 52f
11:00 5
mph
1021.8mb 52f
10:00 6
mph
1021.8mb 51f
9:00 7
mph
1021.5mb 50f
8:00 10 13 mph 1021.5mb 51f
7:00 10 13 mph 1021.2mb 51f
6:00 13 15 mph 1020.7mb 51f
5:00 14
mph
1020.1mb 51f
4:00 13 15 mph 1020.1mb 51f
3:00 15 16 mph 1020mb 51f
2:00 14 15 mph 1019.9mb 52f
1:00 13 14 mph 1019.8mb 52f
12:00 14 15 mph 1019.6mb 53f
dom 09/25 11:00 15 17 mph 1019.5mb 53f
10:00 14 16 mph 1019.7mb 53f
9:00 13 15 mph 1019.5mb 53f
8:00 17 20 mph 1018.7mb 54f
7:00 15 16 mph 1018mb 55f
6:00 17 21 mph 1017mb 55f
5:00 10
mph
1016.7mb 54f
4:00 14 15 mph 1016.2mb 54f
3:00 15 17 mph 1016mb 54f
2:00 14 15 mph 1015.8mb 53f
1:00 16 20 mph 1016.2mb 52f
12:00 15 17 mph 1016.5mb 51f
11:00 11 14 mph 1016.7mb 50f
10:00 16 21 mph 1016.7mb 50f
9:00 20 24 mph 1016.6mb 49f
8:00 21 23 mph 1016.4mb 49f
7:00 22 24 mph 1016.2mb 49f
6:00 18 23 mph 1016.3mb 49f
5:00 17 22 mph 1016.1mb 49f
4:00 14 15 mph 1016.1mb 50f
3:00 11 14 mph 1016.2mb 50f
2:00 18 23 mph 1016.4mb 50f
1:00 14 16 mph 1015.9mb 52f
12:00 21 23 mph 1015.9mb 53f
sáb 09/24 11:00 20 23 mph 1015.7mb 55f
10:00 11 14 mph 1015.7mb 56f
9:00 10 11 mph 1015.7mb 56f
8:00 15 16 mph 1015.7mb 57f
7:00 10
mph
1015.6mb 57f
6:00 11 13 mph 1015.3mb 57f
5:00 15 16 mph 1015.4mb 58f
4:00 10 11 mph 1015.4mb 57f
3:00 11 14 mph 1015.7mb 57f
2:00 15 16 mph 1016mb 56f
1:00 10 11 mph 1016.9mb 55f
12:00 9
mph
1017.6mb 53f
11:00 10 11 mph 1017.9mb 53f
10:00 9 10 mph 1018.1mb 52f
9:00 13 14 mph 1018.2mb 52f
8:00 11 14 mph 1018.3mb 52f
7:00 13 14 mph 1018.6mb 52f
6:00 7
mph
1018.4mb 53f
5:00 6
mph
1017.8mb 53f
4:00 9
mph
1017.6mb 53f
3:00 10 11 mph 1017.9mb 53f
2:00 9
mph
1018mb 53f
1:00 10 11 mph 1017.6mb 53f
12:00 13 15 mph 1017.1mb 54f
vie 09/23 11:00 14 15 mph 1017.4mb 54f
10:00 15 16 mph 1017mb 54f
9:00 14
mph
1017.3mb 55f
8:00 14 15 mph 1017.4mb 55f
7:00 16 18 mph 1016.6mb 56f
6:00 13 14 mph 1016.2mb 56f
5:00 15 17 mph 1015.3mb 56f
4:00 15 18 mph 1014.9mb 56f
3:00 17 20 mph 1013.9mb 57f
2:00 11 13 mph 1014mb 60f
1:00 10
mph
1014mb 59f
12:00 11
mph
1013.9mb 59f
11:00 11 14 mph 1013.4mb 60f
10:00 10
mph
1015mb 60f
9:00 14 15 mph 1014.8mb 61f
8:00 15 16 mph 1014.8mb 61f